Location: Hains Lake
(37.8540°N, 99.8578°W)
Time: 10:28:31
(UTC+00:00)

Tiros 1 despin weight - Pass Details

Date: 25 April 2021
Orbit: 593 x 642 km, 48.2° (Epoch: 07 May)

Event Time Altitude Azimuth Distance (km) Brightness Sun altitude
Rises 16:37:30 0° 295° (WNW) 2,869 ? 53.9°
Reaches altitude 10° 16:40:01 10° 285° (WNW) 1,953 ? 54.3°
Maximum altitude 16:43:55 30° 224° (SW) 1,085 ? 54.9°
Drops below altitude 10° 16:47:46 10° 163° (SSE) 1,922 ? 55.5°
Sets 16:50:14 0° 153° (SSE) 2,815 ? 55.9°
